Lee's Summit, MO

4:01 AM CDT on October 24, 2017 (GMT -0500)
Lee's Summit Municipal

Weather History for KLXT - April, 2014

Change the Weather History Date:

Tuesday, April 8, 2014

  Actual Average (KMKC) Record (KMKC)
Temperature  
Mean Temperature 51 °F -  
Max Temperature 59 °F 61 °F 82 °F (2001)
Min Temperature 45 °F 42 °F 24 °F (2007)
Degree Days  
Heating Degree Days 14    
Growing Degree Days 1 (Base 50)    
Moisture  
Dew Point 32 °F    
Average Humidity 51    
Maximum Humidity 76    
Minimum Humidity 32    
Precipitation  
Precipitation 0.01 in - - ()
Sea Level Pressure  
Sea Level Pressure 29.99 in    
Wind  
Wind Speed 12 mph (NNW)    
Max Wind Speed 21 mph    
Max Gust Speed 30 mph    
Visibility 10 miles    
Events Rain    
Averages and records for this station are not official NWS values.
T = Trace of Precipitation, MM = Missing Value Source: NWS Daily Summary

Daily Weather History Graph

Daily Weather History Graph

Search for Another Location

Airport or City:

Trip Planner

Search our weather history database for the weather conditions in past years. The results will help you decide how hot, cold, wet, or windy it might be!

Date:

Astronomy

Apr. 08, 2014 Rise Set
Actual Time 6:51 AM CDT 7:47 PM CDT
Civil Twilight 6:24 AM CDT 8:15 PM CDT
Nautical Twilight 5:51 AM CDT 8:47 PM CDT
Astronomical Twilight 5:18 AM CDT 9:21 PM CDT
Moon 1:45 PM CDT (4/8) 3:01 AM CDT (4/8)
Length of Visible Light 13h 51m
Length of Day
12h 56m
Waxing Gibbous, 63% of the Moon is Illuminated
Apr 8
Waxing Gibbous
Apr 15
Full
Apr 22
Last Quarter
Apr 29
New
May 6
First Quarter

Hourly Weather History & Observations

Time (CDT) Temp. Windchill Dew Point Humidity Pressure Visibility Wind Dir Wind Speed Gust Speed Precip Events Conditions
12:53 AM 53.1 °F - 37.9 °F 57% 29.86 in 10.0 mi North 15.0 mph 21.9 mph N/A   Mostly Cloudy
1:53 AM 52.0 °F - 39.0 °F 61% 29.87 in 10.0 mi NNW 11.5 mph - 0.00 in   Overcast
2:53 AM 50.0 °F - 39.0 °F 66% 29.86 in 10.0 mi NNW 10.4 mph - N/A   Mostly Cloudy
3:53 AM 48.9 °F - 37.9 °F 66% 29.87 in 10.0 mi NNW 9.2 mph - N/A   Overcast
4:53 AM 48.0 °F - 37.0 °F 66% 29.88 in 10.0 mi NW 8.1 mph - N/A   Clear
5:53 AM 45.0 °F 41.2 °F 35.1 °F 68% 29.90 in 10.0 mi NNW 6.9 mph - N/A   Clear
7:53 AM 46.9 °F - 34.0 °F 61% 29.96 in 10.0 mi North 17.3 mph 25.3 mph N/A   Overcast
8:53 AM 45.0 °F 41.2 °F 37.9 °F 76% 29.98 in 10.0 mi NW 6.9 mph - 0.01 in Rain Light Rain
9:53 AM 48.9 °F - 37.9 °F 66% 29.99 in 10.0 mi North 15.0 mph - 0.00 in   Clear
10:53 AM 53.1 °F - 36.0 °F 52% 30.00 in 10.0 mi NW 16.1 mph 23.0 mph N/A   Partly Cloudy
11:53 AM 52.0 °F - 33.1 °F 49% 30.01 in 10.0 mi NNW 19.6 mph 26.5 mph N/A   Mostly Cloudy
12:53 PM 54.0 °F - 32.0 °F 43% 30.01 in 10.0 mi NNW 16.1 mph 23.0 mph N/A   Mostly Cloudy
1:53 PM 54.0 °F - 32.0 °F 43% 30.01 in 10.0 mi North 17.3 mph 27.6 mph N/A   Mostly Cloudy
2:53 PM 55.0 °F - 34.0 °F 45% 30.02 in 10.0 mi North 20.7 mph 29.9 mph 0.00 in   Overcast
3:53 PM 55.0 °F - 30.9 °F 40% 30.02 in 10.0 mi NNW 18.4 mph 24.2 mph N/A   Mostly Cloudy
4:53 PM 55.9 °F - 30.0 °F 37% 30.02 in 10.0 mi North 15.0 mph 26.5 mph N/A   Scattered Clouds
5:53 PM 57.9 °F - 28.9 °F 33% 30.03 in 10.0 mi NNW 12.7 mph - N/A   Scattered Clouds
6:53 PM 55.9 °F - 26.1 °F 32% 30.05 in 10.0 mi North 15.0 mph - N/A   Clear
7:53 PM 52.0 °F - 25.0 °F 35% 30.06 in 10.0 mi NNW 9.2 mph - N/A   Clear
8:53 PM 51.1 °F - 25.0 °F 36% 30.09 in 10.0 mi WNW 4.6 mph - N/A   Clear
9:53 PM 48.0 °F - 26.1 °F 42% 30.11 in 10.0 mi West 4.6 mph - N/A   Clear
10:53 PM 48.0 °F - 26.1 °F 42% 30.10 in 10.0 mi West 4.6 mph - N/A   Clear
11:53 PM 46.0 °F 43.9 °F 26.1 °F 46% 30.10 in 10.0 mi WSW 4.6 mph - N/A   Clear